User: anonymous   Login
Location: Tucson
(32.2217°N, 110.9265°W)
Time: 22:23:02
(UTC-07:00)
Language:

SRMSAT - Orbit

View from above orbital plane
View from above orbital plane
View from above satellite
View from above satellite

Ground track
Ground track

The orbit data is extracted from the following two-line orbital elements,

1 37841U 11058D   22270.91170240  .00000403  00000-0  76594-4 0  9997
2 37841  19.9733 355.5877 0012036  30.2290 126.8411 14.10774577565726
Epoch (UTC): 27 September 2022 21:52:51
Eccentricity: 0.0012036
inclination: 19.9733°
perigee height: 848 km
apogee height: 865 km
right ascension of ascending node: 355.5877°
argument of perigee: 30.2290°
revolutions per day: 14.10774577
mean anomaly at epoch: 126.8411°
orbit number at epoch: 56572

The dashed part of the orbit path shows where the satellite is in the earth's shadow,  

DLR